Time,TemperatureF,DewpointF,PressureIn,WindDirection,WindDirectionDegrees,WindSpeedMPH,WindSpeedGustMPH,Humidity,HourlyPrecipIn,Conditions,Clouds,dailyrainin,SoftwareType,DateUTC
2013-11-17 00:00:00,57.0,55.9,29.41,South,180,16.0,18.0,96,0.00,,,0.01,meteohub,2013-11-17 06:00:00,
2013-11-17 00:05:00,57.0,55.9,29.40,South,180,16.0,17.0,96,0.00,,,0.01,meteohub,2013-11-17 06:05:00,
2013-11-17 00:10:00,57.4,55.9,29.40,SW,225,9.0,17.0,95,0.00,,,0.01,meteohub,2013-11-17 06:10:00,
2013-11-17 00:15:00,57.4,55.6,29.40,SE,135,17.0,17.0,94,0.00,,,0.01,meteohub,2013-11-17 06:15:00,
2013-11-17 00:20:00,57.4,55.6,29.41,SW,225,14.0,17.0,94,0.00,,,0.01,meteohub,2013-11-17 06:20:00,
2013-11-17 00:25:00,57.4,55.6,29.41,SW,225,9.0,21.0,94,0.00,,,0.01,meteohub,2013-11-17 06:25:00,
2013-11-17 00:30:00,57.4,55.9,29.41,SW,225,14.0,21.0,95,0.00,,,0.01,meteohub,2013-11-17 06:30:00,
2013-11-17 00:35:00,57.4,55.9,29.40,South,180,11.0,21.0,95,0.02,,,0.04,meteohub,2013-11-17 06:35:00,
2013-11-17 00:40:00,57.0,55.9,29.40,SW,225,12.0,21.0,96,0.04,,,0.05,meteohub,2013-11-17 06:40:00,
2013-11-17 00:45:00,57.0,56.1,29.40,SW,225,12.0,21.0,97,0.04,,,0.05,meteohub,2013-11-17 06:45:00,
2013-11-17 00:50:00,57.0,56.1,29.41,SW,225,8.0,14.0,97,0.04,,,0.05,meteohub,2013-11-17 06:50:00,
2013-11-17 00:56:00,57.0,56.5,29.42,SW,225,10.0,15.0,98,0.05,,,0.06,meteohub,2013-11-17 06:56:00,
2013-11-17 01:01:00,57.0,56.5,29.43,SW,225,18.0,18.0,98,0.07,,,0.08,meteohub,2013-11-17 07:01:00,
2013-11-17 01:06:00,57.0,56.5,29.42,NW,315,13.0,21.0,98,0.14,,,0.15,meteohub,2013-11-17 07:06:00,
2013-11-17 01:11:00,56.7,56.1,29.42,SW,225,16.0,21.0,98,0.20,,,0.21,meteohub,2013-11-17 07:11:00,
2013-11-17 01:16:00,56.5,55.9,29.43,SW,225,21.0,21.0,98,0.31,,,0.32,meteohub,2013-11-17 07:16:00,
2013-11-17 01:21:00,56.1,55.6,29.42,SW,225,15.0,21.0,98,0.35,,,0.37,meteohub,2013-11-17 07:21:00,
2013-11-17 01:26:00,56.1,55.6,29.42,SW,225,15.0,21.0,98,0.37,,,0.38,meteohub,2013-11-17 07:26:00,
2013-11-17 01:31:00,56.1,55.2,29.42,SW,225,11.0,22.0,97,0.38,,,0.39,meteohub,2013-11-17 07:31:00,
2013-11-17 01:36:00,55.9,55.0,29.41,SW,225,8.0,22.0,97,0.35,,,0.39,meteohub,2013-11-17 07:36:00,
2013-11-17 01:41:00,55.9,54.9,29.41,South,180,4.0,21.0,96,0.34,,,0.39,meteohub,2013-11-17 07:41:00,
2013-11-17 01:46:00,55.9,54.5,29.41,South,180,4.0,15.0,95,0.34,,,0.39,meteohub,2013-11-17 07:46:00,
2013-11-17 01:51:00,55.9,54.5,29.40,SE,135,4.0,15.0,95,0.34,,,0.39,meteohub,2013-11-17 07:51:00,
2013-11-17 01:56:00,55.6,54.5,29.40,South,180,5.0,8.0,96,0.33,,,0.39,meteohub,2013-11-17 07:56:00,
2013-11-17 02:01:00,55.8,54.7,29.40,SE,135,7.0,8.0,96,0.28,,,0.39,meteohub,2013-11-17 08:01:00,
2013-11-17 02:06:00,55.8,54.7,29.39,SE,135,7.0,7.0,96,0.21,,,0.39,meteohub,2013-11-17 08:06:00,
2013-11-17 02:11:00,55.9,54.9,29.38,SE,135,7.0,7.0,96,0.13,,,0.39,meteohub,2013-11-17 08:11:00,
2013-11-17 02:16:00,55.9,54.9,29.38,East,90,7.0,7.0,96,0.06,,,0.39,meteohub,2013-11-17 08:16:00,
2013-11-17 02:21:00,55.8,54.7,29.38,SE,135,6.0,7.0,96,0.02,,,0.39,meteohub,2013-11-17 08:21:00,
2013-11-17 02:26:00,55.8,54.9,29.38,South,180,4.0,8.0,97,0.00,,,0.39,meteohub,2013-11-17 08:26:00,
2013-11-17 02:31:00,55.6,54.7,29.39,SE,135,4.0,8.0,97,0.00,,,0.39,meteohub,2013-11-17 08:31:00,
2013-11-17 02:37:00,55.6,54.7,29.39,South,180,4.0,8.0,97,0.01,,,0.40,meteohub,2013-11-17 08:37:00,
2013-11-17 02:42:00,55.4,54.5,29.38,South,180,4.0,4.0,97,0.01,,,0.40,meteohub,2013-11-17 08:42:00,
2013-11-17 02:47:00,55.4,54.9,29.39,South,180,4.0,6.0,98,0.01,,,0.40,meteohub,2013-11-17 08:47:00,
2013-11-17 02:52:00,55.4,54.9,29.40,SE,135,8.0,8.0,98,0.01,,,0.40,meteohub,2013-11-17 08:52:00,
2013-11-17 02:57:00,55.2,54.3,29.40,South,180,5.0,8.0,97,0.02,,,0.41,meteohub,2013-11-17 08:57:00,
2013-11-17 03:02:00,55.4,55.0,29.38,SE,135,6.0,11.0,99,0.04,,,0.43,meteohub,2013-11-17 09:02:00,
2013-11-17 03:07:00,55.8,55.4,29.36,SE,135,8.0,11.0,99,0.06,,,0.45,meteohub,2013-11-17 09:07:00,
2013-11-17 03:12:00,55.8,55.4,29.36,SE,135,8.0,11.0,99,0.06,,,0.45,meteohub,2013-11-17 09:12:00,
2013-11-17 03:17:00,55.6,55.2,29.36,SE,135,8.0,11.0,99,0.07,,,0.46,meteohub,2013-11-17 09:17:00,
2013-11-17 03:22:00,55.2,54.3,29.36,SE,135,8.0,11.0,97,0.07,,,0.46,meteohub,2013-11-17 09:22:00,
2013-11-17 03:27:00,55.2,54.3,29.37,SE,135,6.0,11.0,97,0.07,,,0.46,meteohub,2013-11-17 09:27:00,
2013-11-17 03:32:00,55.0,54.1,29.35,South,180,11.0,11.0,97,0.07,,,0.46,meteohub,2013-11-17 09:32:00,
2013-11-17 03:37:00,55.0,54.1,29.35,North,0,9.0,11.0,97,0.06,,,0.46,meteohub,2013-11-17 09:37:00,
2013-11-17 03:42:00,55.0,54.1,29.36,South,180,8.0,12.0,97,0.06,,,0.46,meteohub,2013-11-17 09:42:00,
2013-11-17 03:47:00,54.9,54.0,29.35,SE,135,8.0,12.0,97,0.06,,,0.46,meteohub,2013-11-17 09:47:00,
2013-11-17 03:52:00,55.0,54.1,29.34,SE,135,11.0,13.0,97,0.05,,,0.46,meteohub,2013-11-17 09:52:00,
2013-11-17 03:57:00,55.0,54.1,29.36,South,180,10.0,13.0,97,0.04,,,0.46,meteohub,2013-11-17 09:57:00,
2013-11-17 04:02:00,55.0,54.1,29.35,South,180,7.0,14.0,97,0.02,,,0.46,meteohub,2013-11-17 10:02:00,
2013-11-17 04:07:00,55.0,54.1,29.35,South,180,7.0,14.0,97,0.01,,,0.46,meteohub,2013-11-17 10:07:00,
2013-11-17 04:12:00,54.9,54.0,29.34,South,180,9.0,14.0,97,0.01,,,0.46,meteohub,2013-11-17 10:12:00,
2013-11-17 04:17:00,54.7,53.8,29.34,SE,135,8.0,11.0,97,0.00,,,0.46,meteohub,2013-11-17 10:17:00,
2013-11-17 04:22:00,54.7,53.8,29.34,South,180,9.0,11.0,97,0.00,,,0.46,meteohub,2013-11-17 10:22:00,
2013-11-17 04:27:00,54.5,53.6,29.34,South,180,7.0,10.0,97,0.00,,,0.46,meteohub,2013-11-17 10:27:00,
2013-11-17 04:32:00,54.3,53.4,29.34,SE,135,5.0,10.0,97,0.00,,,0.46,meteohub,2013-11-17 10:32:00,
2013-11-17 04:37:00,54.3,53.4,29.33,South,180,6.0,9.0,97,0.00,,,0.46,meteohub,2013-11-17 10:37:00,
2013-11-17 04:42:00,54.1,53.2,29.33,SE,135,4.0,7.0,97,0.00,,,0.46,meteohub,2013-11-17 10:42:00,
2013-11-17 04:47:00,54.3,53.4,29.34,West,270,4.0,7.0,97,0.00,,,0.46,meteohub,2013-11-17 10:47:00,
2013-11-17 04:52:00,54.3,53.4,29.34,SW,225,4.0,7.0,97,0.00,,,0.46,meteohub,2013-11-17 10:52:00,
2013-11-17 04:57:00,54.3,53.4,29.32,North,0,2.0,7.0,97,0.01,,,0.47,meteohub,2013-11-17 10:57:00,
2013-11-17 05:02:00,54.3,53.4,29.30,NE,45,4.0,6.0,97,0.07,,,0.53,meteohub,2013-11-17 11:02:00,
2013-11-17 05:07:00,54.1,53.2,29.33,SW,225,6.0,6.0,97,0.07,,,0.53,meteohub,2013-11-17 11:07:00,
2013-11-17 05:12:00,54.3,53.4,29.34,SW,225,7.0,8.0,97,0.08,,,0.54,meteohub,2013-11-17 11:12:00,
2013-11-17 05:17:00,54.3,53.4,29.32,NE,45,1.0,8.0,97,0.24,,,0.70,meteohub,2013-11-17 11:17:00,
2013-11-17 05:22:00,54.1,53.2,29.31,SE,135,4.0,8.0,97,0.25,,,0.71,meteohub,2013-11-17 11:22:00,
2013-11-17 05:27:00,54.1,53.2,29.30,SE,135,5.0,7.0,97,0.25,,,0.71,meteohub,2013-11-17 11:27:00,
2013-11-17 05:32:00,54.1,53.2,29.30,SE,135,7.0,7.0,97,0.26,,,0.72,meteohub,2013-11-17 11:32:00,
2013-11-17 05:37:00,54.1,53.2,29.29,SE,135,7.0,8.0,97,0.26,,,0.72,meteohub,2013-11-17 11:37:00,
2013-11-17 05:42:00,54.1,53.2,29.28,SE,135,8.0,8.0,97,0.27,,,0.73,meteohub,2013-11-17 11:42:00,
2013-11-17 05:47:00,54.3,53.4,29.27,SE,135,8.0,9.0,97,0.28,,,0.74,meteohub,2013-11-17 11:47:00,
2013-11-17 05:52:00,54.3,53.4,29.27,SE,135,8.0,9.0,97,0.28,,,0.74,meteohub,2013-11-17 11:52:00,
2013-11-17 05:57:00,54.5,53.6,29.26,SE,135,8.0,9.0,97,0.22,,,0.74,meteohub,2013-11-17 11:57:00,
2013-11-17 06:02:00,54.5,53.6,29.27,South,180,12.0,12.0,97,0.22,,,0.76,meteohub,2013-11-17 12:02:00,
2013-11-17 06:07:00,54.5,53.6,29.28,South,180,12.0,12.0,97,0.24,,,0.77,meteohub,2013-11-17 12:07:00,
2013-11-17 06:12:00,54.5,53.6,29.28,SE,135,7.0,12.0,97,0.19,,,0.78,meteohub,2013-11-17 12:12:00,
2013-11-17 06:17:00,54.5,53.6,29.27,East,90,4.0,12.0,97,0.11,,,0.81,meteohub,2013-11-17 12:17:00,
2013-11-17 06:22:00,54.5,53.6,29.26,SE,135,8.0,12.0,97,0.12,,,0.83,meteohub,2013-11-17 12:22:00,
2013-11-17 06:27:00,54.7,53.8,29.25,East,90,6.0,8.0,97,0.13,,,0.84,meteohub,2013-11-17 12:27:00,
2013-11-17 06:32:00,54.7,53.8,29.25,East,90,7.0,8.0,97,0.12,,,0.84,meteohub,2013-11-17 12:32:00,
2013-11-17 06:37:00,54.5,53.6,29.25,SE,135,8.0,8.0,97,0.11,,,0.84,meteohub,2013-11-17 12:37:00,
2013-11-17 06:42:00,54.5,53.6,29.25,East,90,6.0,8.0,97,0.11,,,0.85,meteohub,2013-11-17 12:42:00,
2013-11-17 06:47:00,54.5,53.6,29.25,SE,135,4.0,8.0,97,0.11,,,0.85,meteohub,2013-11-17 12:47:00,
2013-11-17 06:52:00,54.5,53.6,29.24,SE,135,5.0,8.0,97,0.11,,,0.85,meteohub,2013-11-17 12:52:00,
2013-11-17 06:57:00,54.5,53.6,29.24,SE,135,5.0,6.0,97,0.11,,,0.85,meteohub,2013-11-17 12:57:00,
2013-11-17 07:02:00,54.5,53.6,29.24,East,90,7.0,7.0,97,0.09,,,0.86,meteohub,2013-11-17 13:02:00,
2013-11-17 07:07:00,54.5,53.6,29.23,SE,135,4.0,8.0,97,0.09,,,0.86,meteohub,2013-11-17 13:07:00,
2013-11-17 07:12:00,54.5,53.6,29.23,SE,135,7.0,8.0,97,0.08,,,0.87,meteohub,2013-11-17 13:12:00,
2013-11-17 07:17:00,54.7,53.8,29.23,SE,135,6.0,8.0,97,0.05,,,0.87,meteohub,2013-11-17 13:17:00,
2013-11-17 07:22:00,54.9,54.0,29.22,SE,135,7.0,8.0,97,0.04,,,0.87,meteohub,2013-11-17 13:22:00,
2013-11-17 07:27:00,54.9,54.0,29.22,SE,135,8.0,8.0,97,0.04,,,0.87,meteohub,2013-11-17 13:27:00,
2013-11-17 07:32:00,54.9,54.0,29.22,South,180,5.0,8.0,97,0.04,,,0.87,meteohub,2013-11-17 13:32:00,
2013-11-17 07:37:00,54.7,53.8,29.21,SE,135,8.0,8.0,97,0.04,,,0.87,meteohub,2013-11-17 13:37:00,
2013-11-17 07:42:00,55.2,54.3,29.21,South,180,8.0,8.0,97,0.02,,,0.87,meteohub,2013-11-17 13:42:00,
2013-11-17 07:47:00,55.8,55.4,29.21,SE,135,4.0,10.0,99,0.02,,,0.87,meteohub,2013-11-17 13:47:00,
2013-11-17 07:52:00,55.9,55.6,29.20,South,180,8.0,10.0,99,0.02,,,0.87,meteohub,2013-11-17 13:52:00,
2013-11-17 07:57:00,56.3,55.9,29.20,South,180,7.0,12.0,99,0.01,,,0.87,meteohub,2013-11-17 13:57:00,
2013-11-17 08:02:00,56.7,56.3,29.20,South,180,8.0,12.0,99,0.01,,,0.87,meteohub,2013-11-17 14:02:00,
2013-11-17 08:07:00,56.8,56.5,29.21,NW,315,11.0,12.0,99,0.01,,,0.89,meteohub,2013-11-17 14:07:00,
2013-11-17 08:12:00,55.6,55.2,29.22,SW,225,8.0,12.0,99,0.01,,,0.89,meteohub,2013-11-17 14:12:00,
2013-11-17 08:17:00,55.2,54.3,29.22,NW,315,8.0,16.0,97,0.01,,,0.89,meteohub,2013-11-17 14:17:00,
2013-11-17 08:22:00,54.9,54.0,29.21,WNW,293,8.0,16.0,97,0.01,,,0.89,meteohub,2013-11-17 14:22:00,
2013-11-17 08:27:00,54.9,54.0,29.21,NW,315,14.0,16.0,97,0.01,,,0.89,meteohub,2013-11-17 14:27:00,
2013-11-17 08:32:00,54.7,53.8,29.21,NE,45,11.0,15.0,97,0.01,,,0.89,meteohub,2013-11-17 14:32:00,
2013-11-17 08:37:00,54.5,53.6,29.20,NW,315,6.0,15.0,97,0.02,,,0.90,meteohub,2013-11-17 14:37:00,
2013-11-17 08:42:00,54.5,53.6,29.20,NW,315,7.0,14.0,97,0.02,,,0.90,meteohub,2013-11-17 14:42:00,
2013-11-17 08:47:00,54.5,53.6,29.20,NW,315,8.0,11.0,97,0.02,,,0.90,meteohub,2013-11-17 14:47:00,
2013-11-17 08:52:00,54.3,53.4,29.20,NW,315,8.0,11.0,97,0.02,,,0.90,meteohub,2013-11-17 14:52:00,
2013-11-17 08:57:00,54.3,53.4,29.22,North,0,11.0,11.0,97,0.02,,,0.90,meteohub,2013-11-17 14:57:00,
2013-11-17 09:02:00,54.1,53.2,29.20,North,0,8.0,13.0,97,0.05,,,0.92,meteohub,2013-11-17 15:02:00,
2013-11-17 09:07:00,54.0,53.1,29.20,NE,45,2.0,13.0,97,0.14,,,1.03,meteohub,2013-11-17 15:07:00,
2013-11-17 09:12:00,54.1,53.2,29.18,North,0,7.0,13.0,97,0.17,,,1.05,meteohub,2013-11-17 15:12:00,
2013-11-17 09:17:00,54.0,53.1,29.18,SW,225,4.0,10.0,97,0.24,,,1.12,meteohub,2013-11-17 15:17:00,
2013-11-17 09:22:00,54.1,53.2,29.18,NW,315,2.0,8.0,97,0.32,,,1.20,meteohub,2013-11-17 15:22:00,
2013-11-17 09:27:00,54.5,53.6,29.18,North,0,2.0,8.0,97,0.32,,,1.20,meteohub,2013-11-17 15:27:00,
2013-11-17 09:32:00,54.5,53.6,29.18,North,0,3.0,4.0,97,0.32,,,1.20,meteohub,2013-11-17 15:32:00,
2013-11-17 09:37:00,54.5,53.6,29.17,NE,45,2.0,4.0,97,0.31,,,1.20,meteohub,2013-11-17 15:37:00,
2013-11-17 09:42:00,54.5,53.6,29.18,SE,135,4.0,4.0,97,0.32,,,1.22,meteohub,2013-11-17 15:42:00,
2013-11-17 09:47:00,54.5,53.6,29.17,East,90,3.0,4.0,97,0.33,,,1.23,meteohub,2013-11-17 15:47:00,
2013-11-17 09:52:00,54.5,53.6,29.18,East,90,4.0,4.0,97,0.34,,,1.24,meteohub,2013-11-17 15:52:00,
2013-11-17 09:57:00,54.5,53.6,29.18,South,180,7.0,7.0,97,0.43,,,1.29,meteohub,2013-11-17 15:57:00,
2013-11-17 10:02:00,54.9,54.0,29.19,SE,135,11.0,11.0,97,0.41,,,1.41,meteohub,2013-11-17 16:02:00,
2013-11-17 10:08:00,54.9,54.0,29.17,SW,225,6.0,16.0,97,0.43,,,1.45,meteohub,2013-11-17 16:08:00,
2013-11-17 10:13:00,55.2,54.3,29.16,SW,225,10.0,16.0,97,0.40,,,1.46,meteohub,2013-11-17 16:13:00,
2013-11-17 10:18:00,55.4,55.0,29.16,South,180,8.0,16.0,99,0.30,,,1.48,meteohub,2013-11-17 16:18:00,
2013-11-17 10:23:00,55.4,55.0,29.17,South,180,11.0,14.0,99,0.28,,,1.49,meteohub,2013-11-17 16:23:00,
2013-11-17 10:28:00,55.0,54.1,29.17,South,180,12.0,12.0,97,0.30,,,1.50,meteohub,2013-11-17 16:28:00,
2013-11-17 10:33:00,54.7,53.8,29.16,SW,225,11.0,13.0,97,0.30,,,1.50,meteohub,2013-11-17 16:33:00,
2013-11-17 10:38:00,54.9,54.0,29.16,West,270,9.0,13.0,97,0.31,,,1.51,meteohub,2013-11-17 16:38:00,
2013-11-17 10:43:00,55.2,54.3,29.15,SW,225,8.0,14.0,97,0.30,,,1.51,meteohub,2013-11-17 16:43:00,
2013-11-17 10:48:00,55.0,54.1,29.15,NW,315,9.0,21.0,97,0.28,,,1.51,meteohub,2013-11-17 16:48:00,
2013-11-17 10:53:00,54.9,54.0,29.14,NW,315,13.0,21.0,97,0.26,,,1.51,meteohub,2013-11-17 16:53:00,
2013-11-17 10:58:00,54.7,53.8,29.15,North,0,6.0,17.0,97,0.14,,,1.51,meteohub,2013-11-17 16:58:00,
2013-11-17 11:03:00,54.5,53.6,29.14,NW,315,11.0,17.0,97,0.09,,,1.51,meteohub,2013-11-17 17:03:00,
2013-11-17 11:08:00,54.3,53.4,29.14,North,0,11.0,17.0,97,0.06,,,1.51,meteohub,2013-11-17 17:08:00,
2013-11-17 11:13:00,54.1,53.2,29.14,North,0,8.0,15.0,97,0.04,,,1.51,meteohub,2013-11-17 17:13:00,
2013-11-17 11:18:00,54.1,53.2,29.14,North,0,10.0,15.0,97,0.02,,,1.51,meteohub,2013-11-17 17:18:00,
2013-11-17 11:23:00,54.0,53.1,29.14,North,0,15.0,15.0,97,0.02,,,1.51,meteohub,2013-11-17 17:23:00,
2013-11-17 11:29:00,53.8,52.9,29.13,NW,315,17.0,17.0,97,0.01,,,1.51,meteohub,2013-11-17 17:29:00,
2013-11-17 11:34:00,53.6,52.7,29.13,North,0,17.0,17.0,97,0.01,,,1.51,meteohub,2013-11-17 17:34:00,
2013-11-17 11:39:00,53.2,52.7,29.12,North,0,14.0,17.0,98,0.00,,,1.51,meteohub,2013-11-17 17:39:00,
2013-11-17 11:44:00,53.1,52.5,29.13,NW,315,9.0,19.0,98,0.01,,,1.52,meteohub,2013-11-17 17:44:00,
2013-11-17 11:49:00,52.9,52.3,29.13,North,0,11.0,19.0,98,0.01,,,1.52,meteohub,2013-11-17 17:49:00,
2013-11-17 11:54:00,52.5,52.0,29.13,NW,315,13.0,19.0,98,0.01,,,1.52,meteohub,2013-11-17 17:54:00,
2013-11-17 11:59:00,51.8,51.3,29.13,North,0,13.0,21.0,98,0.01,,,1.52,meteohub,2013-11-17 17:59:00,
2013-11-17 12:04:00,51.6,51.3,29.13,North,0,13.0,21.0,99,0.01,,,1.52,meteohub,2013-11-17 18:04:00,
2013-11-17 12:09:00,51.4,51.1,29.14,North,0,15.0,21.0,99,0.01,,,1.52,meteohub,2013-11-17 18:09:00,
2013-11-17 12:14:00,51.3,50.9,29.14,North,0,15.0,18.0,99,0.01,,,1.52,meteohub,2013-11-17 18:14:00,
2013-11-17 12:19:00,51.1,50.7,29.12,NW,315,21.0,21.0,99,0.01,,,1.52,meteohub,2013-11-17 18:19:00,
2013-11-17 12:24:00,51.1,50.7,29.12,NW,315,15.0,17.0,99,0.01,,,1.52,meteohub,2013-11-17 18:24:00,
2013-11-17 12:29:00,51.1,50.7,29.13,NW,315,19.0,21.0,99,0.01,,,1.52,meteohub,2013-11-17 18:29:00,
2013-11-17 12:34:00,51.1,50.5,29.13,NW,315,11.0,21.0,98,0.01,,,1.52,meteohub,2013-11-17 18:34:00,
2013-11-17 12:40:00,51.1,50.2,29.15,WNW,293,9.0,19.0,97,0.00,,,1.52,meteohub,2013-11-17 18:40:00,
2013-11-17 12:45:00,50.7,49.6,29.16,NW,315,27.0,27.0,96,0.00,,,1.52,meteohub,2013-11-17 18:45:00,
2013-11-17 12:50:00,49.8,48.4,29.17,NW,315,17.0,21.0,95,0.00,,,1.52,meteohub,2013-11-17 18:50:00,
2013-11-17 12:55:00,49.3,47.3,29.17,NW,315,23.0,27.0,93,0.00,,,1.52,meteohub,2013-11-17 18:55:00,
2013-11-17 13:00:00,48.7,45.9,29.17,NW,315,21.0,27.0,90,0.00,,,1.52,meteohub,2013-11-17 19:00:00,
2013-11-17 13:05:00,48.4,45.0,29.18,NW,315,17.0,27.0,88,0.00,,,1.52,meteohub,2013-11-17 19:05:00,
2013-11-17 13:10:00,48.4,45.0,29.19,NW,315,12.0,27.0,88,0.00,,,1.52,meteohub,2013-11-17 19:10:00,
2013-11-17 13:15:00,48.4,45.0,29.19,NW,315,17.0,27.0,88,0.00,,,1.52,meteohub,2013-11-17 19:15:00,
2013-11-17 13:20:00,48.2,45.1,29.20,NW,315,10.0,22.0,89,0.00,,,1.52,meteohub,2013-11-17 19:20:00,
2013-11-17 13:25:00,48.0,45.1,29.20,NW,315,18.0,22.0,90,0.00,,,1.52,meteohub,2013-11-17 19:25:00,
2013-11-17 13:30:00,47.8,44.8,29.21,NW,315,19.0,19.0,89,0.00,,,1.52,meteohub,2013-11-17 19:30:00,
2013-11-17 13:35:00,47.7,44.6,29.21,NW,315,11.0,19.0,89,0.00,,,1.52,meteohub,2013-11-17 19:35:00,
2013-11-17 13:40:00,47.5,44.4,29.21,NW,315,19.0,19.0,89,0.00,,,1.52,meteohub,2013-11-17 19:40:00,
2013-11-17 13:45:00,47.3,44.2,29.22,NW,315,14.0,19.0,89,0.00,,,1.52,meteohub,2013-11-17 19:45:00,
2013-11-17 13:50:00,46.9,44.2,29.23,North,0,11.0,19.0,90,0.00,,,1.52,meteohub,2013-11-17 19:50:00,
2013-11-17 13:56:00,46.6,43.9,29.23,West,270,19.0,19.0,90,0.00,,,1.52,meteohub,2013-11-17 19:56:00,
2013-11-17 14:01:00,46.0,43.9,29.23,NW,315,21.0,21.0,92,0.01,,,1.54,meteohub,2013-11-17 20:01:00,
2013-11-17 14:06:00,45.3,43.3,29.24,West,270,17.0,21.0,93,0.01,,,1.54,meteohub,2013-11-17 20:06:00,
2013-11-17 14:11:00,45.1,43.5,29.25,NW,315,12.0,21.0,94,0.01,,,1.54,meteohub,2013-11-17 20:11:00,
2013-11-17 14:16:00,45.0,43.7,29.26,West,270,17.0,21.0,95,0.01,,,1.54,meteohub,2013-11-17 20:16:00,
2013-11-17 14:21:00,44.8,43.7,29.26,NW,315,11.0,21.0,96,0.02,,,1.55,meteohub,2013-11-17 20:21:00,
2013-11-17 14:26:00,44.8,44.1,29.27,NW,315,16.0,21.0,97,0.02,,,1.55,meteohub,2013-11-17 20:26:00,
2013-11-17 14:31:00,44.6,43.9,29.28,SW,225,18.0,23.0,97,0.04,,,1.56,meteohub,2013-11-17 20:31:00,
2013-11-17 14:36:00,44.8,44.1,29.28,West,270,13.0,23.0,97,0.04,,,1.56,meteohub,2013-11-17 20:36:00,
2013-11-17 14:41:00,44.6,43.9,29.29,NW,315,20.0,20.0,97,0.04,,,1.56,meteohub,2013-11-17 20:41:00,
2013-11-17 14:46:00,44.6,43.9,29.30,WNW,293,23.0,23.0,97,0.05,,,1.57,meteohub,2013-11-17 20:46:00,
2013-11-17 14:51:00,44.2,43.7,29.31,West,270,14.0,23.0,98,0.05,,,1.57,meteohub,2013-11-17 20:51:00,
2013-11-17 14:56:00,44.2,43.5,29.31,West,270,19.0,24.0,97,0.04,,,1.57,meteohub,2013-11-17 20:56:00,
2013-11-17 15:01:00,44.1,43.0,29.32,North,0,26.0,33.0,96,0.04,,,1.57,meteohub,2013-11-17 21:01:00,
2013-11-17 15:07:00,43.9,42.6,29.33,NW,315,17.0,33.0,95,0.06,,,1.59,meteohub,2013-11-17 21:07:00,
2013-11-17 15:12:00,43.7,42.4,29.34,West,270,13.0,33.0,95,0.06,,,1.59,meteohub,2013-11-17 21:12:00,
2013-11-17 15:17:00,43.7,42.4,29.34,West,270,21.0,26.0,95,0.05,,,1.59,meteohub,2013-11-17 21:17:00,
2013-11-17 15:22:00,43.5,42.4,29.34,SW,225,17.0,23.0,96,0.06,,,1.61,meteohub,2013-11-17 21:22:00,
2013-11-17 15:27:00,43.5,42.4,29.35,NW,315,13.0,23.0,96,0.06,,,1.61,meteohub,2013-11-17 21:27:00,
2013-11-17 15:32:00,43.3,42.3,29.36,NW,315,19.0,23.0,96,0.05,,,1.61,meteohub,2013-11-17 21:32:00,
2013-11-17 15:37:00,43.3,42.3,29.36,NW,315,17.0,22.0,96,0.05,,,1.61,meteohub,2013-11-17 21:37:00,
2013-11-17 15:42:00,43.3,42.3,29.36,North,0,15.0,22.0,96,0.06,,,1.62,meteohub,2013-11-17 21:42:00,
2013-11-17 15:47:00,43.5,42.4,29.37,North,0,15.0,22.0,96,0.05,,,1.62,meteohub,2013-11-17 21:47:00,
2013-11-17 15:52:00,43.5,42.3,29.37,West,270,15.0,22.0,95,0.05,,,1.62,meteohub,2013-11-17 21:52:00,
2013-11-17 15:57:00,43.5,42.3,29.38,NW,315,23.0,23.0,95,0.05,,,1.62,meteohub,2013-11-17 21:57:00,
2013-11-17 16:02:00,43.7,42.1,29.38,NW,315,13.0,25.0,94,0.04,,,1.62,meteohub,2013-11-17 22:02:00,
2013-11-17 16:07:00,43.7,42.1,29.39,NW,315,15.0,25.0,94,0.02,,,1.62,meteohub,2013-11-17 22:07:00,
2013-11-17 16:12:00,43.7,42.1,29.39,NNW,338,14.0,25.0,94,0.02,,,1.62,meteohub,2013-11-17 22:12:00,
2013-11-17 16:17:00,43.9,41.9,29.40,NW,315,16.0,28.0,93,0.01,,,1.62,meteohub,2013-11-17 22:17:00,
2013-11-17 16:22:00,43.9,41.7,29.41,West,270,10.0,28.0,92,0.01,,,1.62,meteohub,2013-11-17 22:22:00,
2013-11-17 16:27:00,44.1,41.9,29.41,West,270,20.0,28.0,92,0.01,,,1.62,meteohub,2013-11-17 22:27:00,
2013-11-17 16:32:00,44.1,41.5,29.42,NW,315,13.0,24.0,91,0.01,,,1.62,meteohub,2013-11-17 22:32:00,
2013-11-17 16:37:00,44.1,41.4,29.42,West,270,11.0,24.0,90,0.01,,,1.62,meteohub,2013-11-17 22:37:00,
2013-11-17 16:42:00,43.9,41.2,29.43,West,270,19.0,23.0,90,0.00,,,1.62,meteohub,2013-11-17 22:42:00,
2013-11-17 16:47:00,43.9,41.2,29.44,NW,315,15.0,23.0,90,0.00,,,1.62,meteohub,2013-11-17 22:47:00,
2013-11-17 16:52:00,43.9,41.2,29.44,West,270,15.0,21.0,90,0.00,,,1.62,meteohub,2013-11-17 22:52:00,
2013-11-17 16:57:00,43.7,41.0,29.44,NW,315,15.0,21.0,90,0.00,,,1.62,meteohub,2013-11-17 22:57:00,
2013-11-17 17:02:00,43.7,41.0,29.44,North,0,31.0,31.0,90,0.00,,,1.62,meteohub,2013-11-17 23:02:00,
2013-11-17 17:07:00,43.5,40.3,29.45,NW,315,12.0,31.0,88,0.04,,,1.65,meteohub,2013-11-17 23:07:00,
2013-11-17 17:12:00,43.3,39.7,29.47,NW,315,11.0,32.0,87,0.04,,,1.65,meteohub,2013-11-17 23:12:00,
2013-11-17 17:17:00,43.2,39.6,29.47,West,270,21.0,32.0,87,0.06,,,1.68,meteohub,2013-11-17 23:17:00,
2013-11-17 17:22:00,43.2,39.2,29.47,NW,315,17.0,26.0,86,0.06,,,1.68,meteohub,2013-11-17 23:22:00,
2013-11-17 17:27:00,43.2,39.2,29.48,NW,315,23.0,27.0,86,0.06,,,1.68,meteohub,2013-11-17 23:27:00,
2013-11-17 17:32:00,43.0,38.8,29.48,NW,315,20.0,27.0,85,0.06,,,1.68,meteohub,2013-11-17 23:32:00,
2013-11-17 17:37:00,43.0,38.8,29.49,North,0,12.0,23.0,85,0.06,,,1.68,meteohub,2013-11-17 23:37:00,
2013-11-17 17:42:00,42.8,38.7,29.49,NW,315,16.0,23.0,85,0.06,,,1.68,meteohub,2013-11-17 23:42:00,
2013-11-17 17:47:00,42.8,38.8,29.49,North,0,17.0,27.0,86,0.06,,,1.68,meteohub,2013-11-17 23:47:00,
2013-11-17 17:52:00,42.8,38.7,29.50,North,0,18.0,27.0,85,0.06,,,1.68,meteohub,2013-11-17 23:52:00,
2013-11-17 17:57:00,43.0,38.8,29.50,NW,315,14.0,24.0,85,0.06,,,1.68,meteohub,2013-11-17 23:57:00,
2013-11-17 18:02:00,43.0,38.5,29.50,NW,315,19.0,23.0,84,0.06,,,1.68,meteohub,2013-11-18 00:02:00,
2013-11-17 18:07:00,43.0,38.5,29.50,NW,315,17.0,23.0,84,0.02,,,0.00,meteohub,2013-11-18 00:07:00,
2013-11-17 18:12:00,43.0,38.5,29.51,WNW,293,11.0,23.0,84,0.00,,,0.00,meteohub,2013-11-18 00:12:00,
2013-11-17 18:17:00,43.0,38.5,29.52,North,0,17.0,23.0,84,0.00,,,0.00,meteohub,2013-11-18 00:17:00,
2013-11-17 18:23:00,42.8,38.7,29.51,NW,315,15.0,22.0,85,0.00,,,0.00,meteohub,2013-11-18 00:23:00,
2013-11-17 18:28:00,42.8,38.3,29.51,NW,315,17.0,22.0,84,0.00,,,0.00,meteohub,2013-11-18 00:28:00,
2013-11-17 18:33:00,42.8,38.3,29.51,NW,315,19.0,24.0,84,0.00,,,0.00,meteohub,2013-11-18 00:33:00,
2013-11-17 18:38:00,42.8,37.9,29.52,NW,315,23.0,24.0,83,0.00,,,0.00,meteohub,2013-11-18 00:38:00,
2013-11-17 18:43:00,42.8,37.9,29.52,NW,315,13.0,24.0,83,0.00,,,0.00,meteohub,2013-11-18 00:43:00,
2013-11-17 18:48:00,42.6,38.1,29.52,NW,315,14.0,24.0,84,0.00,,,0.00,meteohub,2013-11-18 00:48:00,
2013-11-17 18:53:00,42.6,38.1,29.53,West,270,13.0,23.0,84,0.00,,,0.00,meteohub,2013-11-18 00:53:00,
2013-11-17 18:58:00,42.4,37.9,29.53,West,270,19.0,23.0,84,0.00,,,0.00,meteohub,2013-11-18 00:58:00,
2013-11-17 19:03:00,42.3,37.8,29.54,NW,315,15.0,23.0,84,0.00,,,0.00,meteohub,2013-11-18 01:03:00,
2013-11-17 19:08:00,42.3,37.4,29.54,NW,315,16.0,23.0,83,0.00,,,0.00,meteohub,2013-11-18 01:08:00,
2013-11-17 19:13:00,41.9,37.0,29.55,NW,315,18.0,23.0,83,0.00,,,0.00,meteohub,2013-11-18 01:13:00,
2013-11-17 19:18:00,41.5,37.0,29.55,West,270,16.0,23.0,84,0.00,,,0.00,meteohub,2013-11-18 01:18:00,
2013-11-17 19:23:00,41.5,36.7,29.55,North,0,21.0,21.0,83,0.00,,,0.00,meteohub,2013-11-18 01:23:00,
2013-11-17 19:28:00,41.4,36.5,29.55,West,270,14.0,18.0,83,0.00,,,0.00,meteohub,2013-11-18 01:28:00,
2013-11-17 19:34:00,41.2,36.5,29.56,NW,315,15.0,21.0,83,0.00,,,0.00,meteohub,2013-11-18 01:34:00,
2013-11-17 19:39:00,41.0,36.3,29.57,NW,315,15.0,21.0,83,0.00,,,0.00,meteohub,2013-11-18 01:39:00,
2013-11-17 19:44:00,41.0,36.3,29.57,NW,315,8.0,21.0,83,0.00,,,0.00,meteohub,2013-11-18 01:44:00,
2013-11-17 19:49:00,40.8,36.7,29.57,West,270,21.0,21.0,85,0.00,,,0.00,meteohub,2013-11-18 01:49:00,
2013-11-17 19:54:00,40.8,36.7,29.57,NW,315,14.0,21.0,85,0.00,,,0.00,meteohub,2013-11-18 01:54:00,
2013-11-17 19:59:00,40.8,36.7,29.57,NW,315,16.0,21.0,85,0.00,,,0.00,meteohub,2013-11-18 01:59:00,
2013-11-17 20:04:00,40.8,36.7,29.58,North,0,8.0,21.0,85,0.00,,,0.00,meteohub,2013-11-18 02:04:00,
2013-11-17 20:09:00,40.8,36.7,29.58,NW,315,11.0,20.0,85,0.00,,,0.00,meteohub,2013-11-18 02:09:00,
2013-11-17 20:14:00,40.6,36.9,29.58,NW,315,18.0,18.0,86,0.00,,,0.00,meteohub,2013-11-18 02:14:00,
2013-11-17 20:19:00,40.8,36.7,29.58,NW,315,11.0,18.0,85,0.00,,,0.00,meteohub,2013-11-18 02:19:00,
2013-11-17 20:24:00,40.8,36.7,29.58,NW,315,11.0,21.0,85,0.00,,,0.00,meteohub,2013-11-18 02:24:00,
2013-11-17 20:29:00,40.6,36.5,29.59,West,270,14.0,21.0,85,0.00,,,0.00,meteohub,2013-11-18 02:29:00,
2013-11-17 20:34:00,40.6,36.5,29.59,North,0,10.0,21.0,85,0.00,,,0.00,meteohub,2013-11-18 02:34:00,
2013-11-17 20:39:00,40.8,36.7,29.59,NW,315,13.0,16.0,85,0.00,,,0.00,meteohub,2013-11-18 02:39:00,
2013-11-17 20:45:00,41.0,36.5,29.60,NW,315,11.0,23.0,84,0.00,,,0.00,meteohub,2013-11-18 02:45:00,
2013-11-17 20:50:00,41.0,36.5,29.60,West,270,12.0,23.0,84,0.00,,,0.00,meteohub,2013-11-18 02:50:00,
2013-11-17 20:55:00,41.2,36.5,29.60,SW,225,21.0,23.0,83,0.00,,,0.00,meteohub,2013-11-18 02:55:00,
2013-11-17 21:00:00,41.2,36.5,29.61,West,270,14.0,21.0,83,0.00,,,0.00,meteohub,2013-11-18 03:00:00,
2013-11-17 21:05:00,41.2,36.5,29.62,West,270,15.0,21.0,83,0.00,,,0.00,meteohub,2013-11-18 03:05:00,
2013-11-17 21:10:00,41.2,36.5,29.62,NW,315,14.0,23.0,83,0.00,,,0.00,meteohub,2013-11-18 03:10:00,
2013-11-17 21:15:00,41.2,36.5,29.62,NW,315,10.0,23.0,83,0.00,,,0.00,meteohub,2013-11-18 03:15:00,
2013-11-17 21:20:00,41.2,36.5,29.62,North,0,16.0,23.0,83,0.00,,,0.00,meteohub,2013-11-18 03:20:00,
2013-11-17 21:26:00,41.0,36.3,29.62,North,0,12.0,18.0,83,0.00,,,0.00,meteohub,2013-11-18 03:26:00,
2013-11-17 21:31:00,40.8,36.3,29.62,North,0,19.0,19.0,84,0.00,,,0.00,meteohub,2013-11-18 03:31:00,
2013-11-17 21:36:00,40.8,36.7,29.62,NW,315,14.0,23.0,85,0.00,,,0.00,meteohub,2013-11-18 03:36:00,
2013-11-17 21:41:00,41.0,36.5,29.62,North,0,6.0,23.0,84,0.00,,,0.00,meteohub,2013-11-18 03:41:00,
2013-11-17 21:46:00,41.0,36.5,29.62,SW,225,20.0,20.0,84,0.00,,,0.00,meteohub,2013-11-18 03:46:00,
2013-11-17 21:51:00,41.2,36.7,29.62,SW,225,13.0,21.0,84,0.00,,,0.00,meteohub,2013-11-18 03:51:00,
2013-11-17 21:57:00,41.0,36.5,29.62,West,270,21.0,21.0,84,0.00,,,0.00,meteohub,2013-11-18 03:57:00,
2013-11-17 22:02:00,41.0,36.5,29.62,NW,315,16.0,21.0,84,0.00,,,0.00,meteohub,2013-11-18 04:02:00,
2013-11-17 22:07:00,41.0,36.3,29.62,NW,315,19.0,21.0,83,0.00,,,0.00,meteohub,2013-11-18 04:07:00,
2013-11-17 22:12:00,40.8,36.7,29.62,NW,315,13.0,21.0,85,0.00,,,0.00,meteohub,2013-11-18 04:12:00,
2013-11-17 22:17:00,40.6,36.5,29.62,NW,315,11.0,21.0,85,0.00,,,0.00,meteohub,2013-11-18 04:17:00,
2013-11-17 22:22:00,40.5,36.0,29.63,NW,315,15.0,21.0,84,0.00,,,0.00,meteohub,2013-11-18 04:22:00,
2013-11-17 22:27:00,40.3,35.8,29.64,NW,315,15.0,21.0,84,0.00,,,0.00,meteohub,2013-11-18 04:27:00,
2013-11-17 22:32:00,40.3,35.6,29.64,NW,315,15.0,20.0,83,0.00,,,0.00,meteohub,2013-11-18 04:32:00,
2013-11-17 22:37:00,40.1,35.1,29.64,West,270,13.0,23.0,82,0.00,,,0.00,meteohub,2013-11-18 04:37:00,
2013-11-17 22:42:00,40.1,35.1,29.65,North,0,16.0,23.0,82,0.00,,,0.00,meteohub,2013-11-18 04:42:00,
2013-11-17 22:47:00,40.3,34.9,29.64,NW,315,21.0,23.0,81,0.00,,,0.00,meteohub,2013-11-18 04:47:00,
2013-11-17 22:52:00,40.3,34.9,29.64,North,0,19.0,23.0,81,0.00,,,0.00,meteohub,2013-11-18 04:52:00,
2013-11-17 22:57:00,40.3,34.9,29.65,NW,315,20.0,24.0,81,0.00,,,0.00,meteohub,2013-11-18 04:57:00,
2013-11-17 23:01:00,40.3,34.9,29.65,North,0,18.0,24.0,81,0.00,,,0.00,meteohub,2013-11-18 05:01:00,
2013-11-17 23:02:00,40.1,34.7,29.65,NW,315,23.0,24.0,81,0.00,,,0.00,meteohub,2013-11-18 05:02:00,
2013-11-17 23:03:00,40.1,34.7,29.65,NW,315,15.0,24.0,81,0.00,,,0.00,meteohub,2013-11-18 05:03:00,
2013-11-17 23:04:00,40.1,34.7,29.65,North,0,21.0,24.0,81,0.00,,,0.00,meteohub,2013-11-18 05:04:00,
2013-11-17 23:05:00,40.1,34.7,29.65,West,270,18.0,24.0,81,0.00,,,0.00,meteohub,2013-11-18 05:05:00,
2013-11-17 23:10:00,39.9,34.5,29.65,NW,315,12.0,23.0,81,0.00,,,0.00,meteohub,2013-11-18 05:10:00,
2013-11-17 23:13:00,39.9,34.5,29.65,NW,315,16.0,23.0,81,0.00,,,0.00,meteohub,2013-11-18 05:13:00,
2013-11-17 23:18:00,39.9,34.5,29.66,WNW,293,15.0,27.0,81,0.00,,,0.00,meteohub,2013-11-18 05:18:00,
2013-11-17 23:23:00,39.7,34.7,29.67,SW,225,9.0,27.0,82,0.00,,,0.00,meteohub,2013-11-18 05:23:00,
2013-11-17 23:28:00,39.7,34.7,29.67,North,0,20.0,27.0,82,0.00,,,0.00,meteohub,2013-11-18 05:28:00,
2013-11-17 23:33:00,39.7,34.7,29.68,West,270,10.0,21.0,82,0.00,,,0.00,meteohub,2013-11-18 05:33:00,
2013-11-17 23:39:00,39.6,34.5,29.68,West,270,16.0,21.0,82,0.00,,,0.00,meteohub,2013-11-18 05:39:00,
2013-11-17 23:44:00,39.6,34.2,29.68,NW,315,13.0,21.0,81,0.00,,,0.00,meteohub,2013-11-18 05:44:00,
2013-11-17 23:49:00,39.6,34.5,29.68,NW,315,16.0,21.0,82,0.00,,,0.00,meteohub,2013-11-18 05:49:00,
2013-11-17 23:54:00,39.6,34.5,29.68,NW,315,16.0,17.0,82,0.00,,,0.00,meteohub,2013-11-18 05:54:00,
2013-11-17 23:59:00,39.4,34.3,29.68,West,270,11.0,17.0,82,0.00,,,0.00,meteohub,2013-11-18 05:59:00,